Holdrege, NE

3:49 PM CST on December 15, 2017 (GMT -0600)
Brewster

Weather History for KHDE - November, 2012

Change the Weather History Date:

Saturday, November 10, 2012

  Actual Average Record
Temperature  
Mean Temperature 54 °F -  
Max Temperature 79 °F 49 °F 79 °F (2012)
Min Temperature 29 °F 26 °F 5 °F (1950)
Degree Days  
Heating Degree Days 11    
Growing Degree Days 4 (Base 50)    
Moisture  
Dew Point 35 °F    
Average Humidity 74    
Maximum Humidity 99    
Minimum Humidity 20    
Precipitation  
Precipitation 0.00 in - - ()
Sea Level Pressure  
Sea Level Pressure 29.55 in    
Wind  
Wind Speed 10 mph (West)    
Max Wind Speed 36 mph    
Max Gust Speed 47 mph    
Visibility 6 miles    
Events Fog , Rain , Thunderstorm    
Averages and records for this station are not official NWS values.
T = Trace of Precipitation, MM = Missing Value Source: NWS Daily Summary

Daily Weather History Graph

Daily Weather History Graph

Search for Another Location

Airport or City:

Trip Planner

Search our weather history database for the weather conditions in past years. The results will help you decide how hot, cold, wet, or windy it might be!

Date:

Astronomy

Nov. 10, 2012 Rise Set
Actual Time 7:18 AM CST 5:23 PM CST
Civil Twilight 6:49 AM CST 5:52 PM CST
Nautical Twilight 6:16 AM CST 6:25 PM CST
Astronomical Twilight 5:44 AM CST 6:57 PM CST
Moon 3:24 AM CST (11/10) 3:12 PM CST (11/10)
Length of Visible Light 11h 03m
Length of Day
10h 05m
Waning Crescent, 14% of the Moon is Illuminated
Nov 10
Waning Crescent
Nov 13
New
Nov 20
First Quarter
Nov 28
Full
Dec 6
Last Quarter

Hourly Weather History & Observations

Time (CST) Temp. Windchill Dew Point Humidity Pressure Visibility Wind Dir Wind Speed Gust Speed Precip Events Conditions
12:15 AM 33.3 °F 28.9 °F 32.2 °F 96% 29.60 in 0.2 mi NNW 4.6 mph - N/A Fog Fog
12:35 AM 34.2 °F 31.2 °F 33.1 °F 96% 29.59 in 0.2 mi NNW 3.5 mph - N/A Fog Fog
12:55 AM 32.2 °F 27.7 °F 31.6 °F 98% 29.58 in 0.2 mi NW 4.6 mph - N/A Fog Fog
1:15 AM 32.4 °F 27.9 °F 31.8 °F 98% 29.58 in 0.2 mi WNW 4.6 mph - N/A Fog Fog
1:35 AM 32.2 °F 26.7 °F 31.8 °F 99% 29.57 in 0.2 mi NW 5.8 mph - N/A Fog Fog
1:55 AM 32.4 °F 26.9 °F 32.0 °F 99% 29.59 in 0.2 mi WNW 5.8 mph - N/A Fog Fog
2:15 AM 32.5 °F 28.1 °F 32.0 °F 98% 29.57 in 0.2 mi WNW 4.6 mph - N/A Fog Fog
2:55 AM 32.0 °F - 31.3 °F 97% 29.57 in 0.2 mi Calm Calm - N/A Fog Fog
3:15 AM 32.2 °F - 31.6 °F 98% 29.56 in 0.2 mi Calm Calm - N/A Fog Fog
3:35 AM 31.8 °F - 31.1 °F 97% 29.57 in 0.2 mi Calm Calm - N/A Fog Fog
3:55 AM 30.0 °F - 29.3 °F 97% 29.56 in 0.2 mi Calm Calm - N/A Fog Light Freezing Fog
4:15 AM 30.0 °F - 29.3 °F 97% 29.56 in 0.2 mi Calm Calm - N/A Fog Light Freezing Fog
4:35 AM 29.5 °F 24.5 °F 28.8 °F 97% 29.56 in 0.2 mi SSE 4.6 mph - N/A Fog Light Freezing Fog
4:55 AM 29.1 °F 25.4 °F 28.2 °F 96% 29.57 in 0.2 mi SSW 3.5 mph - N/A Fog Light Freezing Fog
5:15 AM 30.0 °F 26.5 °F 29.1 °F 96% 29.57 in 0.5 mi NW 3.5 mph - N/A Fog Light Freezing Fog
5:35 AM 30.0 °F - 29.1 °F 96% 29.57 in 0.5 mi Calm Calm - N/A Fog Light Freezing Fog
5:55 AM 30.0 °F - 29.1 °F 96% 29.57 in 0.2 mi Calm Calm - N/A Fog Light Freezing Fog
6:35 AM 29.1 °F 25.4 °F 28.2 °F 96% 29.59 in 1.5 mi SW 3.5 mph - N/A   Mostly Cloudy
6:55 AM 31.1 °F 25.4 °F 29.8 °F 95% 29.58 in 4.0 mi SSW 5.8 mph - N/A   Clear
7:15 AM 30.9 °F 27.5 °F 29.8 °F 96% 29.58 in 4.0 mi WSW 3.5 mph - N/A   Clear
7:35 AM 32.0 °F - 30.9 °F 96% 29.57 in 5.0 mi Calm Calm - N/A   Clear
7:55 AM 31.5 °F - 30.6 °F 96% 29.58 in 5.0 mi Calm Calm - N/A   Clear
8:15 AM 32.5 °F - 32.0 °F 98% 29.58 in 5.0 mi Calm Calm - N/A   Clear
8:35 AM 35.2 °F 32.4 °F 34.2 °F 96% 29.57 in 5.0 mi South 3.5 mph - N/A   Clear
8:55 AM 39.6 °F - 38.3 °F 95% 29.57 in 7.0 mi Calm Calm - N/A   Clear
9:15 AM 43.0 °F 40.3 °F 41.7 °F 95% 29.56 in 7.0 mi South 4.6 mph - N/A   Clear
9:35 AM 45.3 °F 43.0 °F 43.9 °F 95% 29.56 in 10.0 mi SE 4.6 mph - N/A   Clear
9:55 AM 48.0 °F - 45.9 °F 92% 29.55 in 10.0 mi South 6.9 mph - N/A   Clear
10:15 AM 52.5 °F - 46.4 °F 80% 29.54 in 10.0 mi South 9.2 mph - N/A   Clear
10:35 AM 59.5 °F - 45.9 °F 61% 29.54 in 10.0 mi South 11.5 mph 20.7 mph N/A   Clear
10:55 AM 62.2 °F - 45.7 °F 55% 29.52 in 10.0 mi South 21.9 mph 26.5 mph N/A   Clear
11:15 AM 64.9 °F - 45.7 °F 50% 29.52 in 10.0 mi South 20.7 mph 27.6 mph N/A   Clear
11:35 AM 68.4 °F - 45.7 °F 44% 29.51 in 10.0 mi South 25.3 mph 32.2 mph N/A   Clear
11:55 AM 71.1 °F - 45.3 °F 40% 29.49 in 10.0 mi South 23.0 mph 29.9 mph N/A   Clear
12:15 PM 72.5 °F - 44.8 °F 37% 29.48 in 10.0 mi South 24.2 mph 32.2 mph N/A   Clear
12:35 PM 73.8 °F - 44.4 °F 35% 29.46 in 10.0 mi South 24.2 mph 33.4 mph N/A   Clear
12:55 PM 75.4 °F - 43.5 °F 32% 29.45 in 10.0 mi South 27.6 mph 35.7 mph N/A   Clear
1:15 PM 76.8 °F - 43.2 °F 30% 29.43 in 10.0 mi South 32.2 mph 40.3 mph N/A   Clear
1:35 PM 78.3 °F - 40.5 °F 26% 29.42 in 10.0 mi South 31.1 mph 42.6 mph N/A   Scattered Clouds
1:55 PM 79.0 °F - 36.7 °F 22% 29.41 in 5.0 mi SSW 26.5 mph 44.9 mph N/A   Haze
2:15 PM 79.5 °F - 35.4 °F 20% 29.40 in 5.0 mi SSW 34.5 mph 42.6 mph N/A   Haze
2:35 PM 79.3 °F - 35.4 °F 20% 29.39 in 7.0 mi South 26.5 mph 40.3 mph N/A   Clear
2:55 PM 78.8 °F - 35.8 °F 21% 29.38 in 5.0 mi SSW 33.4 mph 47.2 mph N/A   Haze
3:15 PM 78.6 °F - 36.3 °F 22% 29.37 in 7.0 mi South 35.7 mph 47.2 mph N/A   Clear
3:35 PM 78.4 °F - 35.6 °F 21% 29.37 in 7.0 mi SSW 32.2 mph 43.7 mph N/A Thunderstorm Clear
3:55 PM 77.2 °F - 35.8 °F 22% 29.37 in 7.0 mi SSW 25.3 mph 38.0 mph N/A   Clear
4:15 PM 63.3 °F - 40.3 °F 43% 29.41 in 5.0 mi NNW 17.3 mph 28.8 mph N/A   Haze
4:35 PM 57.7 °F - 41.9 °F 56% 29.44 in 10.0 mi NW 18.4 mph 25.3 mph N/A   Clear
4:55 PM 52.3 °F - 41.0 °F 65% 29.46 in 7.0 mi NNW 19.6 mph 28.8 mph N/A   Clear
5:15 PM 48.9 °F - 41.5 °F 76% 29.46 in 7.0 mi North 18.4 mph 29.9 mph N/A Rain , Thunderstorm Light Thunderstorms and Rain
5:35 PM 45.5 °F 40.3 °F 40.1 °F 81% 29.53 in 10.0 mi North 10.4 mph 21.9 mph N/A   Clear
5:55 PM 44.2 °F 37.0 °F 39.6 °F 84% 29.53 in 10.0 mi North 16.1 mph 23.0 mph N/A   Clear
6:15 PM 43.0 °F 33.5 °F 38.5 °F 84% 29.55 in 10.0 mi NNW 24.2 mph 33.4 mph N/A   Clear
6:35 PM 42.1 °F 32.1 °F 37.4 °F 83% 29.54 in 10.0 mi NNW 25.3 mph 29.9 mph N/A   Scattered Clouds
6:55 PM 41.5 °F 32.4 °F 37.4 °F 85% 29.55 in 10.0 mi NNW 20.7 mph 31.1 mph N/A   Scattered Clouds
7:15 PM 41.4 °F 32.1 °F 37.4 °F 86% 29.55 in 10.0 mi North 20.7 mph 27.6 mph N/A   Scattered Clouds
7:35 PM 40.5 °F 30.9 °F 36.7 °F 86% 29.56 in 10.0 mi NNW 20.7 mph 26.5 mph N/A   Scattered Clouds
7:55 PM 39.2 °F 29.8 °F 35.2 °F 86% 29.59 in 10.0 mi North 18.4 mph 23.0 mph N/A   Scattered Clouds
8:15 PM 39.2 °F 28.7 °F 34.7 °F 84% 29.62 in 10.0 mi North 23.0 mph 27.6 mph N/A   Mostly Cloudy
8:35 PM 37.9 °F 28.2 °F 32.5 °F 81% 29.67 in 10.0 mi North 18.4 mph 26.5 mph N/A   Overcast
8:55 PM 36.7 °F 26.0 °F 31.1 °F 80% 29.69 in 10.0 mi North 20.7 mph 31.1 mph N/A   Overcast
9:15 PM 35.4 °F 23.7 °F 29.5 °F 79% 29.69 in 10.0 mi North 23.0 mph 34.5 mph N/A   Overcast
9:35 PM 32.9 °F 19.3 °F 26.2 °F 76% 29.69 in 10.0 mi North 27.6 mph 34.5 mph N/A   Overcast
10:35 PM 30.6 °F 17.3 °F 23.4 °F 75% 29.76 in 10.0 mi North 23.0 mph 28.8 mph N/A   Mostly Cloudy
10:55 PM 30.2 °F 17.8 °F 23.0 °F 75% 29.78 in 10.0 mi North 19.6 mph 29.9 mph N/A   Overcast
11:15 PM 30.2 °F 19.3 °F 23.0 °F 75% 29.78 in 10.0 mi North 15.0 mph 19.6 mph N/A   Overcast
11:35 PM 30.7 °F 19.2 °F 23.4 °F 74% 29.77 in 10.0 mi NNW 17.3 mph 26.5 mph N/A   Overcast
11:55 PM 30.7 °F 19.6 °F 23.5 °F 75% 29.78 in 10.0 mi NNW 16.1 mph 21.9 mph N/A   Overcast